This demonstration page uses our WeatherBlox Daily Observations layout. Learn more.

Left ArrowRight Arrow

Hourly Observations for May 16, 2018

Temp ( °F °C ) Dew Point ( °F °C ) Humidity (%) Winds ( mph kmh ) Pressure ( in mb ) Visibility ( mi km ) Precip ( " mm )
12:53 am 00:53 Clear 60 15.6 44 6.7 56 56 SSE 8 13 29.78 1009 10 16 0.00 0.00
1:53 am 01:53 Clear 67 19.4 42 5.6 41 41 SSE 7 11 29.77 1008 10 16 0.00 0.00
2:53 am 02:53 Clear 55 12.8 44 6.7 67 67 NW 3 6 29.78 1009 10 16 0.00 0.00
3:53 am 03:53 Clear 53 11.7 44 6.7 72 72 WSW 3 6 29.79 1009 10 16 0.00 0.00
4:53 am 04:53 Clear 52 11.1 44 6.7 75 75 Calm 29.79 1009 10 16 0.00 0.00
5:53 am 05:53 Sunny 51 10.6 44 6.7 77 77 Calm 29.80 1009 10 16 0.00 0.00
6:53 am 06:53 Sunny 52 11.1 47 8.3 83 83 WSW 5 7 29.80 1009 10 16 0.00 0.00
7:53 am 07:53 Sunny 59 15 48 8.9 67 67 Calm 29.80 1009 10 16 0.00 0.00
8:53 am 08:53 Sunny 65 18.3 49 9.4 56 56 Calm 29.80 1009 10 16 0.00 0.00
9:53 am 09:53 Sunny 71 21.7 47 8.3 42 42 Calm 29.80 1009 10 16 0.00 0.00
10:53 am 10:53 Sunny 75 24 N/A N/A VRB 3 6 29.79 1009 N/A 0.00 0.00
11:29 am 11:29 Mostly Sunny 76 24.4 48 8.9 37 37 SW 9 15 29.68 1005 8 13 0.00 0.00
11:53 am 11:53 Sunny 77 25 47 8.3 35 35 SSW 10 17 29.77 1008 10 16 0.00 0.00
12:53 pm 12:53 Sunny 79 26.1 45 7.2 30 30 VRB 3 6 29.75 1007 10 16 0.00 0.00
1:53 pm 13:53 Sunny 82 27.8 46 7.8 28 28 S 6 9 29.72 1007 10 16 0.00 0.00
2:53 pm 14:53 Sunny with Nearby Thunderstorms 78 25.6 49 9.4 36 36 SW 7 11 29.73 1007 10 16 0.00 0.00
3:08 pm 15:08 Sunny 77 25 52 11 42 42 SSW 6 9 29.62 1003 10 16 0.00 0.00
3:26 pm 15:26 Sunny with Nearby Thunderstorms 75 24 52 11 44 44 S 7 11 29.62 1003 10 16 0.00 0.00
3:53 pm 15:53 Mostly Cloudy with Nearby Thunderstorms 74 23.3 48 8.9 40 40 SSE 10 17 29.74 1007 10 16 0.00 0.00
4:40 pm 16:40 Mostly Sunny 73 23 45 7 36 36 NE 9 15 29.59 1002 10 16 0.00 0.00
4:53 pm 16:53 Mostly Sunny 75 23.9 42 5.6 31 31 VRB 6 9 29.72 1007 10 16 0.00 0.00
5:06 pm 17:06 Partly Cloudy with Nearby Thunderstorms 72 22 45 7 38 38 S 13 20 29.65 1004 10 16 0.00 0.00
5:21 pm 17:21 Mostly Cloudy 72 22.2 46 7.8 40 40 SE 7 11 29.65 1004 10 16 0.00 0.00
5:53 pm 17:53 Mostly Cloudy with Light Rain 74 23.3 43 6.1 33 33 NE 5 7 29.73 1007 10 16 0.00 0.03
6:53 pm 18:53 Sunny 72 22.2 44 6.7 37 37 ENE 9 15 29.73 1007 10 16 0.00 0.03
7:53 pm 19:53 Sunny 68 20 48 8.9 49 49 ESE 6 9 29.71 1006 10 16 0.00 0.00
8:53 pm 20:53 Sunny 63 17.2 49 9.4 60 60 ENE 3 6 29.71 1006 10 16 0.00 0.00
9:53 pm 21:53 Clear 64 17.8 46 7.8 52 52 W 6 9 29.72 1007 10 16 0.00 0.00
10:53 pm 22:53 Mostly Clear 61 16.1 51 10.6 70 70 SE 6 9 29.74 1007 10 16 0.00 0.00
11:53 pm 23:53 Clear 59 15 48 8.9 67 67 Calm 29.74 1007 10 16 0.00 0.00

Powered by AerisWeather